• In Netherlands
  • List of Countries
  • For 7 days
  • Water Temperature
  • Satellite Maps
  • Weather Map
  • Weather Widgets
  • user-avatar
    Login

    Hourly Weather Encamp

    Today, 20 November, Monday

    Time Temperature Precipitation Wind Pressure Humidity
    00:00 -1°C° 0 mm 2 mps 626 mmHg 58%
    01:00 -1°C° 0 mm 2 mps 626 mmHg 59%
    02:00 -1°C° 0 mm 2 mps 626 mmHg 60%
    03:00 -1°C° 0 mm 2 mps 626 mmHg 61%
    04:00 -1°C° 0 mm 2 mps 626 mmHg 62%
    05:00 -1°C° 0 mm 2 mps 626 mmHg 63%
    06:00 -1°C° 0 mm 2 mps 626 mmHg 64%
    07:00 +3°C° 0 mm 1 mps 627 mmHg 59%
    08:00 +5°C° 0 mm 1 mps 628 mmHg 55%
    09:00 +7°C° 0 mm 1 mps 628 mmHg 51%
    10:00 +8°C° 0 mm 1 mps 629 mmHg 48%
    11:00 +10°C° 0 mm 1 mps 629 mmHg 45%
    12:00 +11°C° 0 mm 1 mps 629 mmHg 42%
    13:00 +11°C° 0 mm 1 mps 629 mmHg 45%
    14:00 +10°C° 0 mm 1 mps 629 mmHg 48%
    15:00 +9°C° 0 mm 1 mps 628 mmHg 52%
    16:00 +7°C° 0 mm 1 mps 627 mmHg 58%
    17:00 +5°C° 0 mm 1 mps 626 mmHg 64%
    18:00 +3°C° 0 mm 1 mps 626 mmHg 71%
    19:00 +3°C° 0 mm 1 mps 626 mmHg 70%
    20:00 +3°C° 0 mm 1 mps 626 mmHg 69%
    21:00 +3°C° 0 mm 1 mps 626 mmHg 68%
    22:00 +3°C° 0 mm 1 mps 626 mmHg 66%
    23:00 +3°C° 0 mm 1 mps 626 mmHg 64%

    Tomorrow, 21 November, Tuesday

    Time Temperature Precipitation Wind Pressure Humidity
    00:00 +3°C° 0 mm 1 mps 626 mmHg 62%
    01:00 +3°C° 0 mm 1 mps 626 mmHg 60%
    02:00 +3°C° 0 mm 1 mps 625 mmHg 57%
    03:00 +3°C° 0 mm 1 mps 625 mmHg 55%
    04:00 +3°C° 0 mm 1 mps 625 mmHg 52%
    05:00 +3°C° 0 mm 1 mps 625 mmHg 49%
    06:00 +3°C° 0 mm 1 mps 625 mmHg 47%
    07:00 +4°C° 0 mm 1 mps 626 mmHg 43%
    08:00 +6°C° 0 mm 1 mps 627 mmHg 40%
    09:00 +8°C° 0 mm 1 mps 627 mmHg 37%
    10:00 +10°C° 0 mm 1 mps 628 mmHg 34%
    11:00 +11°C° 0 mm 1 mps 628 mmHg 32%
    12:00 +13°C° 0 mm 1 mps 628 mmHg 30%
    13:00 +12°C° 0 mm 1 mps 628 mmHg 34%
    14:00 +11°C° 0 mm 1 mps 627 mmHg 39%
    15:00 +11°C° 0 mm 1 mps 627 mmHg 43%
    16:00 +9°C° 0 mm 1 mps 626 mmHg 48%
    17:00 +6°C° 0 mm 1 mps 625 mmHg 53%
    18:00 +4°C° 0 mm 1 mps 624 mmHg 58%
    19:00 +4°C° 0 mm 1 mps 624 mmHg 57%
    20:00 +4°C° 0 mm 1 mps 624 mmHg 57%
    21:00 +4°C° 0 mm 1 mps 624 mmHg 56%
    22:00 +4°C° 0 mm 1 mps 624 mmHg 56%
    23:00 +3°C° 0 mm 1 mps 624 mmHg 55%

    Day after tomorrow, 22 November, Wednesday

    Time Temperature Precipitation Wind Pressure Humidity
    00:00 +3°C° 0 mm 1 mps 624 mmHg 55%
    01:00 +3°C° 0 mm 1 mps 623 mmHg 54%
    02:00 +3°C° 0 mm 1 mps 623 mmHg 53%
    03:00 +3°C° 0 mm 1 mps 623 mmHg 53%
    04:00 +3°C° 0 mm 1 mps 623 mmHg 51%
    05:00 +2°C° 0 mm 1 mps 622 mmHg 49%
    06:00 +2°C° 0 mm 1 mps 622 mmHg 48%
    07:00 +4°C° 0 mm 1 mps 623 mmHg 45%
    08:00 +6°C° 0 mm 1 mps 624 mmHg 42%
    09:00 +8°C° 0 mm 1 mps 625 mmHg 39%
    10:00 +8°C° 0 mm 2 mps 625 mmHg 36%
    11:00 +9°C° 0 mm 2 mps 626 mmHg 34%
    12:00 +12°C° 0 mm 2 mps 626 mmHg 32%
    13:00 +10°C° 0 mm 2 mps 626 mmHg 36%
    14:00 +9°C° 0 mm 2 mps 625 mmHg 40%
    15:00 +9°C° 0 mm 2 mps 625 mmHg 43%
    16:00 +7°C° 0 mm 2 mps 624 mmHg 48%
    17:00 +5°C° 0 mm 1 mps 623 mmHg 53%
    18:00 +3°C° 0 mm 1 mps 623 mmHg 57%
    19:00 +3°C° 0 mm 1 mps 623 mmHg 54%
    20:00 +3°C° 0 mm 1 mps 623 mmHg 50%
    21:00 +3°C° 0 mm 1 mps 623 mmHg 47%
    22:00 +3°C° 0 mm 1 mps 623 mmHg 45%
    23:00 +3°C° 0 mm 1 mps 623 mmHg 43%

    23 November, Thursday

    Time Temperature Precipitation Wind Pressure Humidity
    00:00 +2°C° 0 mm 1 mps 623 mmHg 41%
    01:00 +2°C° 0 mm 1 mps 623 mmHg 41%
    02:00 +2°C° 0 mm 1 mps 623 mmHg 41%
    03:00 +2°C° 0 mm 1 mps 623 mmHg 40%
    04:00 +2°C° 0 mm 1 mps 624 mmHg 41%
    05:00 +2°C° 0 mm 1 mps 624 mmHg 41%
    06:00 +2°C° 0 mm 1 mps 624 mmHg 41%
    07:00 +3°C° 0 mm 1 mps 625 mmHg 40%
    08:00 +5°C° 0 mm 1 mps 626 mmHg 39%
    09:00 +7°C° 0 mm 1 mps 627 mmHg 38%
    10:00 +7°C° 0 mm 2 mps 627 mmHg 38%
    11:00 +9°C° 0 mm 2 mps 628 mmHg 37%
    12:00 +10°C° 0 mm 2 mps 628 mmHg 37%
    13:00 +9°C° 0 mm 2 mps 628 mmHg 40%
    14:00 +9°C° 0 mm 2 mps 627 mmHg 44%
    15:00 +8°C° 0 mm 2 mps 627 mmHg 48%
    16:00 +6°C° 0 mm 2 mps 626 mmHg 57%
    17:00 +4°C° 0 mm 2 mps 626 mmHg 65%
    18:00 +3°C° 0 mm 1 mps 625 mmHg 74%
    19:00 +2°C° 0 mm 2 mps 625 mmHg 74%
    20:00 +2°C° 0 mm 2 mps 625 mmHg 74%
    21:00 +1°C° 0 mm 2 mps 625 mmHg 74%
    22:00 +1°C° 0 mm 2 mps 625 mmHg 75%
    23:00 +1°C° 0 mm 2 mps 625 mmHg 76%

    24 November, Friday

    Time Temperature Precipitation Wind Pressure Humidity
    00:00 +1°C° 0 mm 2 mps 625 mmHg 77%
    01:00 +1°C° 0 mm 2 mps 624 mmHg 74%
    02:00 +1°C° 0 mm 2 mps 624 mmHg 71%
    03:00 +1°C° 0 mm 2 mps 624 mmHg 68%
    04:00 -1°C° 0 mm 2 mps 624 mmHg 64%
    05:00 -1°C° 0 mm 2 mps 624 mmHg 59%
    06:00 -1°C° 0 mm 2 mps 624 mmHg 54%
    07:00 +2°C° 0 mm 2 mps 625 mmHg 49%
    08:00 +4°C° 0 mm 2 mps 625 mmHg 44%
    09:00 +5°C° 0 mm 2 mps 626 mmHg 39%
    10:00 +7°C° 0 mm 2 mps 627 mmHg 36%
    11:00 +8°C° 0 mm 2 mps 627 mmHg 34%
    12:00 +10°C° 0 mm 2 mps 627 mmHg 32%
    13:00 +9°C° 0 mm 2 mps 627 mmHg 35%
    14:00 +9°C° 0 mm 2 mps 626 mmHg 38%
    15:00 +8°C° 0 mm 2 mps 626 mmHg 41%
    16:00 +6°C° 0 mm 2 mps 625 mmHg 46%
    17:00 +4°C° 0 mm 2 mps 624 mmHg 51%
    18:00 +2°C° 0 mm 2 mps 624 mmHg 56%
    19:00 +2°C° 0 mm 2 mps 624 mmHg 58%
    20:00 +2°C° 0 mm 2 mps 624 mmHg 60%
    21:00 +2°C° 0 mm 2 mps 624 mmHg 62%
    22:00 +3°C° 0 mm 2 mps 624 mmHg 62%
    23:00 +3°C° 0 mm 2 mps 624 mmHg 63%

    25 November, Saturday

    Time Temperature Precipitation Wind Pressure Humidity
    00:00 +3°C° 0 mm 2 mps 624 mmHg 64%
    01:00 +3°C° 0 mm 2 mps 623 mmHg 63%
    02:00 +3°C° 0 mm 2 mps 623 mmHg 62%
    03:00 +3°C° 0 mm 2 mps 623 mmHg 61%
    04:00 +3°C° 0 mm 2 mps 623 mmHg 59%
    05:00 +3°C° 0 mm 2 mps 623 mmHg 58%
    06:00 +3°C° 0 mm 2 mps 623 mmHg 56%
    07:00 +4°C° 0 mm 2 mps 623 mmHg 53%
    08:00 +5°C° 0 mm 2 mps 624 mmHg 50%
    09:00 +5°C° 0 mm 3 mps 625 mmHg 46%
    10:00 +7°C° 0 mm 3 mps 625 mmHg 45%
    11:00 +8°C° 0 mm 3 mps 625 mmHg 43%
    12:00 +10°C° 0 mm 3 mps 625 mmHg 42%
    13:00 +9°C° 0 mm 3 mps 625 mmHg 45%
    14:00 +9°C° 0 mm 2 mps 625 mmHg 47%
    15:00 +8°C° 0 mm 2 mps 625 mmHg 50%
    16:00 +7°C° 0 mm 2 mps 625 mmHg 56%
    17:00 +5°C° 0 mm 2 mps 624 mmHg 61%
    18:00 +5°C° 0 mm 1 mps 624 mmHg 67%
    19:00 +5°C° 0 mm 1 mps 624 mmHg 69%
    20:00 +5°C° 0 mm 1 mps 624 mmHg 71%
    21:00 +5°C° 0 mm 1 mps 625 mmHg 73%
    22:00 +5°C° 0.2 mm 1 mps 625 mmHg 77%
    23:00 +5°C° 0.2 mm 1 mps 625 mmHg 81%
    Show more